User: anonymous   Login
Location: Newark
(22.3060°N, 114.2134°E)
Time: 04:05:22
(UTC+00:00)
Language:

Tiros 1 - Orbit

View from above orbital plane
View from above orbital plane
View from above satellite
View from above satellite

Ground track
Ground track

The orbit data is extracted from the following two-line orbital elements,

1 00029U 60002B   21206.96717732 -.00000098  00000-0  16397-4 0  9990
2 00029  48.3780 204.1951 0023741 160.4507 199.7320 14.74441298278085
Epoch (UTC): 25 July 2021 23:12:44
Eccentricity: 0.0023741
inclination: 48.3780°
perigee height: 630 km
apogee height: 663 km
right ascension of ascending node: 204.1951°
argument of perigee: 160.4507°
revolutions per day: 14.74441298
mean anomaly at epoch: 199.7320°
orbit number at epoch: 27808

The dashed part of the orbit path shows where the satellite is in the earth's shadow,  

DLR